Sarasota, FL

10:25 AM EDT on June 24, 2017 (GMT -0400)
Sarasota-bradenton

Weather History for KSRQ - January, 2005

Change the Weather History Date:

Saturday, January 1, 2005

  Actual Average Record
Temperature  
Mean Temperature 70 °F 61 °F  
Max Temperature 77 °F 71 °F 85 °F (1991)
Min Temperature 62 °F 52 °F 30 °F (2001)
Degree Days  
Heating Degree Days 0 5  
Month to date heating degree days 5  
Since 1 July heating degree days 160  
Cooling Degree Days 5 2  
Month to date cooling degree days 2  
Year to date cooling degree days 2  
Growing Degree Days 20 (Base 50)    
Moisture  
Dew Point 57 °F    
Average Humidity 70    
Maximum Humidity 90    
Minimum Humidity 48    
Precipitation  
Precipitation 0.00 in 0.12 in 5.59 in (2006)
Month to date precipitation 0.12  
Year to date precipitation 0.12  
Sea Level Pressure  
Sea Level Pressure 30.31 in    
Wind  
Wind Speed 8 mph (East)    
Max Wind Speed 14 mph    
Max Gust Speed -    
Visibility 10 miles    
Events      
T = Trace of Precipitation, MM = Missing Value Source: NWS Daily Summary

Daily Weather History Graph

Daily Weather History Graph

Search for Another Location

Airport or City:

Trip Planner

Search our weather history database for the weather conditions in past years. The results will help you decide how hot, cold, wet, or windy it might be!

Date:

Astronomy

Jan. 01, 2005 Rise Set
Actual Time 7:20 AM EST 5:47 PM EST
Civil Twilight 6:54 AM EST 6:13 PM EST
Nautical Twilight 6:25 AM EST 6:42 PM EST
Astronomical Twilight 5:57 AM EST 7:10 PM EST
Moon 11:13 PM EST (1/1) 11:19 AM EST (1/1)
Length of Visible Light 11h 18m
Length of Day
10h 27m
Waning Gibbous, 70% of the Moon is Illuminated
Jan 1
Waning Gibbous
Jan 3
Last Quarter
Jan 10
New
Jan 17
First Quarter
Jan 25
Full

Hourly Weather History & Observations

Time (EST) Temp. Dew Point Humidity Pressure Visibility Wind Dir Wind Speed Gust Speed Precip Events Conditions
12:53 AM 64.9 °F 57.9 °F 78% 30.30 in 10.0 mi East 8.1 mph - N/A   Overcast
1:53 AM 63.0 °F 57.9 °F 84% 30.29 in 10.0 mi East 6.9 mph - N/A   Overcast
2:53 AM 64.0 °F 57.9 °F 80% 30.29 in 10.0 mi East 5.8 mph - N/A   Overcast
3:53 AM 64.0 °F 57.9 °F 80% 30.29 in 10.0 mi ENE 6.9 mph - N/A   Overcast
4:53 AM 64.0 °F 57.9 °F 80% 30.29 in 10.0 mi ENE 6.9 mph - N/A   Overcast
5:53 AM 64.0 °F 59.0 °F 84% 30.29 in 10.0 mi East 6.9 mph - N/A   Overcast
6:53 AM 64.0 °F 57.9 °F 80% 30.30 in 10.0 mi East 8.1 mph - N/A   Overcast
7:53 AM 64.9 °F 59.0 °F 81% 30.32 in 10.0 mi East 8.1 mph - N/A   Mostly Cloudy
8:53 AM 66.0 °F 59.0 °F 78% 30.34 in 10.0 mi ENE 9.2 mph - N/A   Clear
9:53 AM 70.0 °F 59.0 °F 68% 30.35 in 10.0 mi East 10.4 mph - N/A   Clear
10:53 AM 73.9 °F 57.9 °F 57% 30.36 in 10.0 mi East 12.7 mph - N/A   Clear
11:53 AM 73.9 °F 55.9 °F 53% 30.35 in 10.0 mi ESE 9.2 mph - N/A   Scattered Clouds
12:53 PM 75.0 °F 55.0 °F 50% 30.32 in 10.0 mi East 13.8 mph - N/A   Clear
1:53 PM 75.0 °F 55.9 °F 51% 30.29 in 10.0 mi East 12.7 mph - N/A   Mostly Cloudy
2:53 PM 77.0 °F 57.0 °F 50% 30.27 in 10.0 mi ESE 12.7 mph - N/A   Scattered Clouds
3:53 PM 75.9 °F 55.9 °F 50% 30.27 in 10.0 mi East 11.5 mph - N/A   Scattered Clouds
4:53 PM 75.9 °F 55.0 °F 48% 30.28 in 10.0 mi ENE 10.4 mph - N/A   Mostly Cloudy
5:53 PM 71.1 °F 54.0 °F 55% 30.29 in 10.0 mi East 8.1 mph - N/A   Clear
6:53 PM 69.1 °F 55.0 °F 61% 30.30 in 10.0 mi NE 4.6 mph - N/A   Clear
7:53 PM 68.0 °F 57.0 °F 68% 30.31 in 10.0 mi ENE 10.4 mph - N/A   Scattered Clouds
8:53 PM 66.0 °F 57.9 °F 75% 30.32 in 10.0 mi ENE 6.9 mph - 0.00 in   Mostly Cloudy
9:53 PM 64.0 °F 59.0 °F 84% 30.33 in 10.0 mi ENE 6.9 mph - N/A   Clear
10:53 PM 63.0 °F 59.0 °F 87% 30.33 in 10.0 mi ENE 8.1 mph - N/A   Clear
11:53 PM 62.1 °F 59.0 °F 90% 30.32 in 10.0 mi ENE 8.1 mph - N/A   Clear